Temperature
14 13 13 13 13 13 13 12 12 12 12 12 12 12 12 12 12 12 12 12 13 13 13 13 13 13 13 13 13 14 14 14 14 14 14 14 15 15 15 15 15 15 15
14 14 13 13 13 13 13 13 12 12 12 12 12 12 12 12 12 12 12 12 12 13 13 13 13 13 13 13 13 13 13 14 14 14 14 14 14 14 14 14 14 15 15
14 14 13 13 13 13 13 13 13 12 12 12 12 12 12 12 12 12 12 12 12 12 13 13 13 13 13 13 13 13 13 13 13 13 14 14 14 14 14 14 14 14 14
14 14 14 13 13 13 13 13 13 13 13 12 12 12 12 12 12 12 12 12 12 12 12 13 13 13 13 13 13 13 13 13 13 13 13 13 13 13 13 13 14 14 14
14 14 14 13 13 13 13 13 13 13 13 12 12 12 12 12 12 12 12 12 12 12 13 12 12 12 13 13 13 13 13 13 13 13 13 13 13 13 13 13 13 13 13
15 14 14 14 13 13 13 13 13 13 13 13 12 12 12 12 12 12 12 12 12 12 12 12 12 12 12 12 12 12 13 13 13 13 13 13 13 13 13 13 13 13 13
15 15 14 14 14 14 13 13 13 13 13 13 13 12 12 12 12 12 12 12 12 12 12 12 12 12 12 12 12 12 12 12 12 13 13 13 13 13 13 13 13 13 13
15 15 14 14 14 14 14 13 13 13 13 13 13 13 12 12 12 12 12 12 12 12 12 12 12 12 12 12 12 12 12 12 12 12 13 13 13 13 13 13 13 13 13
15 15 15 14 14 14 14 14 13 13 13 13 13 13 13 12 12 12 12 12 12 12 12 12 12 12 12 12 12 12 12 12 12 12 12 12 12 12 12 12 12 12 12
15 15 15 15 14 14 14 14 14 14 13 13 13 13 13 13 12 12 12 12 12 12 12 12 12 12 12 12 12 12 12 12 12 12 12 12 12 12 12 12 12 12 12
15 15 15 15 15 14 14 14 14 14 13 13 13 13 13 13 12 12 12 12 12 12 12 12 12 12 12 12 12 12 12 12 12 12 12 12 12 12 12 12 12 12 12
16 15 15 15 15 14 14 14 14 14 14 14 13 13 13 13 13 12 12 12 12 12 12 12 12 12 12 12 12 12 12 12 12 12 12 12 12 12 12 12 12 12 11
16 15 15 15 15 15 14 14 14 14 14 14 14 13 13 13 13 13 12 12 12 12 12 12 12 12 12 12 12 12 12 12 12 12 12 12 12 12 12 12 11 11 11
15 15 15 15 15 15 14 14 14 14 14 14 14 14 14 13 13 13 13 12 12 12 12 12 12 12 12 12 12 12 11 11 11 11 11 11 11 11 11 11 11 11 11
15 15 15 15 15 14 14 14 14 14 14 14 14 13 14 14 13 13 13 13 12 12 12 12 12 12 12 12 12 11 11 11 11 11 11 11 11 11 11 11 11 11 11
15 15 15 14 14 14 14 14 14 14 14 14 13 13 13 13 13 13 13 13 13 12 12 12 12 12 12 12 11 11 11 11 11 11 11 11 11 11 11 11 11 11 11
15 14 14 14 14 14 13 13 14 14 14 14 13 13 13 13 14 13 13 13 13 13 12 12 12 12 11 11 11 11 11 11 11 11 11 11 11 11 11 11 11 11 11
14 13 13 13 13 13 13 13 13 13 13 13 13 13 13 13 13 13 13 13 13 13 12 12 12 12 11 11 11 11 11 11 11 11 11 11 11 11 11 11 11 11 11
13 13 13 12 12 12 12 12 12 12 12 12 12 13 13 13 13 13 13 13 12 12 12 12 12 12 11 11 11 11 11 11 11 11 11 11 11 11 11 11 11 10 10
12 12 12 12 11 11 11 11 11 11 11 11 11 11 11 12 12 12 12 11 11 11 11 11 11 11 11 11 11 11 11 11 11 10 10 10 10 10 10 10 10 10 10
12 11 11 11 11 10 10 10 10 10 10 10 10 10 10 10 10 10 10 10 10 10 10 10 10 10 10 10 10 10 10 10 10 10 10 10 10 10 10 10 10 10 10
11 10 10 10 9 9 9 9 9 9 9 9 9 9 9 9 9 9 9 9 9 9 9 9 9 9 9 9 9 9 10 10 10 10 10 10 10 10 10 10 10 10 10
9 9 9 8 8 8 8 8 8 8 8 8 8 8 8 8 8 7 7 8 8 8 8 8 8 8 8 8 8 8 8 9 9 9 9 9 9 9 9 9 9 9 9
8 8 8 7 7 7 7 7 7 6 6 6 6 6 6 6 6 6 6 6 6 7 7 7 7 7 7 7 7 7 7 7 8 8 8 8 8 9 9 9 9 9 9
7 7 7 7 6 6 6 6 6 6 5 5 5 5 5 5 5 5 5 5 5 5 5 6 6 6 6 6 6 6 6 6 7 7 7 7 8 8 8 8 8 9 9
7 6 6 6 6 5 5 5 5 5 5 4 4 4 4 4 4 4 4 4 4 4 4 4 5 5 5 5 5 5 5 6 6 6 6 7 7 7 7 8 8 8 8
Wind_Speed
1 1 1 2 2 3 3 4 4 4 4 4 4 4 4 3 3 2 1 1 1 1 1 0 1 1 1 1 1 2 2 3 3 2 1 2 2 3 3 4 6 6 8
2 1 1 1 2 3 4 4 4 4 4 4 4 4 4 3 2 2 1 2 1 1 1 1 1 0 1 1 1 2 2 3 3 3 1 1 2 3 4 4 4 5 6
2 1 0 2 2 3 4 4 4 4 4 5 4 4 4 3 2 2 1 1 1 1 1 1 1 1 1 1 1 1 2 2 2 3 2 1 1 2 3 2 3 2 4
3 2 1 2 2 2 3 4 4 3 4 4 4 4 4 3 2 2 2 2 1 1 1 1 1 2 2 2 1 2 2 2 2 2 2 2 1 1 3 3 2 2 2
3 2 2 2 2 2 3 3 3 3 4 4 4 5 5 3 3 2 1 1 2 2 2 2 2 2 3 3 2 2 2 2 2 2 3 2 2 2 3 3 3 2 2
4 3 2 1 1 2 2 3 3 4 4 4 4 4 5 4 5 4 1 1 1 1 2 2 2 2 3 3 3 3 4 4 4 3 3 4 4 3 3 3 3 3 3
4 3 3 2 1 2 2 2 3 3 3 4 4 4 4 6 7 6 4 1 1 1 1 1 2 2 2 1 3 3 4 5 6 5 5 5 5 5 5 5 5 5 4
3 3 3 3 2 2 2 2 3 2 2 3 3 4 4 5 7 6 5 2 2 2 1 1 1 2 2 2 1 1 2 3 4 4 6 6 6 5 6 6 5 3 1
4 4 4 4 3 3 3 3 3 2 3 3 3 3 3 5 6 5 3 2 2 3 3 2 1 2 4 2 0 1 2 3 3 5 6 7 7 7 6 4 5 4 3
5 6 5 4 4 4 4 4 3 2 3 3 3 3 3 4 6 4 2 1 1 2 3 3 4 3 3 2 1 1 2 3 2 2 2 2 3 4 6 6 6 6 3
5 5 4 4 4 5 4 3 3 3 3 3 4 4 4 5 6 5 2 1 1 1 2 3 3 5 5 4 2 2 4 4 2 2 2 2 1 2 3 3 4 5 5
4 4 4 5 4 3 4 4 3 2 3 4 4 5 4 5 5 5 4 3 2 1 2 3 4 6 6 6 4 4 4 3 1 1 1 2 2 2 2 2 3 4 4
2 3 4 4 4 4 4 4 3 2 2 3 3 4 5 4 4 6 6 5 4 2 3 4 5 6 7 5 5 6 4 1 1 2 2 3 2 2 1 1 1 1 2
2 3 3 3 4 4 3 4 3 3 3 4 4 5 5 4 4 4 3 3 3 3 3 5 6 6 5 5 5 4 2 2 2 3 3 2 1 1 2 2 2 2 1
2 2 3 3 4 4 4 4 5 5 5 5 5 5 4 5 7 7 5 4 4 3 2 2 2 3 3 3 3 3 3 2 2 2 2 2 2 2 2 2 2 2 2
1 2 2 3 3 3 4 5 6 7 9 10 9 7 6 9 10 8 9 8 7 4 2 2 3 3 4 4 4 4 3 3 3 3 3 3 3 4 3 2 2 3 3
1 2 2 2 2 2 2 3 5 6 6 7 8 8 9 10 10 9 8 7 6 4 3 4 4 5 5 5 4 4 4 4 3 3 4 4 4 4 4 4 4 3 4
1 2 2 2 2 2 2 3 3 3 5 5 6 8 9 9 8 6 5 2 2 2 3 5 6 6 5 5 5 5 5 4 4 4 4 4 5 5 5 5 5 5 5
2 2 2 2 2 2 2 2 2 3 3 4 5 7 9 7 5 4 1 1 3 4 4 5 5 6 6 6 6 5 5 5 5 4 4 5 5 5 5 6 6 7 6
3 6 5 3 3 3 4 4 4 4 4 4 5 6 6 6 6 5 3 2 3 4 4 5 5 5 5 5 5 4 4 5 5 5 5 5 5 5 6 7 6 6 6
4 5 8 6 4 4 4 4 4 4 4 4 5 7 8 5 4 5 4 4 4 5 5 5 5 5 5 5 4 5 5 5 4 5 5 5 5 5 6 6 7 7 6
4 4 5 5 4 5 5 5 5 5 6 6 5 7 10 6 6 6 6 6 6 5 6 5 5 5 4 4 5 5 4 5 5 5 5 5 5 6 6 6 6 6 7
5 5 5 5 5 6 6 5 5 5 5 6 6 6 7 6 6 6 7 7 6 6 6 6 6 6 6 5 4 4 4 5 6 6 6 6 6 6 6 7 7 7 8
5 5 5 5 5 5 5 5 5 5 5 5 5 5 5 5 6 6 6 6 6 6 6 6 7 9 10 8 7 6 6 8 8 6 7 7 7 7 7 7 8 8 8
4 4 4 4 4 4 4 4 4 4 4 4 4 5 5 5 5 6 6 6 6 6 8 7 6 7 10 11 10 11 13 14 12 10 7 6 8 8 8 8 8 8 9
3 3 3 2 2 2 2 3 3 3 3 3 4 4 4 4 5 5 5 5 6 6 7 6 8 9 10 10 12 15 16 17 17 15 9 6 7 8 8 8 9 9 9
Wind_Direction
241 295 348 331 333 344 342 328 324 330 336 341 337 340 345 345 349 13 5 17 24 345 333 277 265 236 211 221 195 181 187 175 205 242 233 198 183 188 177 180 192 195 205
217 206 303 320 340 347 340 333 332 334 338 342 346 348 347 349 351 4 356 13 18 340 331 9 302 285 241 223 183 191 198 190 186 218 231 208 208 190 184 186 187 193 196
195 171 313 329 331 331 330 337 345 346 346 352 1 353 344 339 341 339 344 343 345 307 280 253 264 238 242 242 217 215 217 212 186 188 215 216 217 180 174 188 189 188 195
176 168 237 286 292 305 323 343 350 351 354 351 353 346 341 345 347 349 7 2 351 334 303 261 255 233 229 217 221 222 208 198 192 187 203 207 214 185 169 185 197 201 202
171 187 239 267 290 318 335 343 348 349 352 348 350 349 348 351 356 356 349 345 339 332 325 305 278 268 245 219 217 208 193 197 196 201 208 209 209 193 199 192 197 197 212
173 201 226 260 308 319 320 333 345 342 343 351 350 348 351 351 355 360 358 348 329 315 312 315 306 294 276 267 255 229 211 207 208 205 213 213 221 215 204 198 189 194 218
183 206 217 225 258 290 314 337 330 326 334 339 339 344 339 332 347 358 3 21 350 317 291 305 317 323 317 293 274 257 249 240 222 207 210 217 214 209 199 205 206 201 213
186 210 221 223 248 277 308 308 302 305 313 315 321 327 326 327 341 348 356 19 15 360 341 303 298 317 315 300 280 284 271 259 242 227 222 226 222 214 208 211 206 195 191
201 219 224 219 231 256 273 278 274 287 297 298 298 310 315 315 329 340 360 26 16 355 348 341 319 309 324 340 276 266 301 300 275 242 231 234 231 224 204 182 183 186 211
219 224 224 218 222 238 252 260 263 259 272 288 297 294 293 299 316 322 342 55 7 335 338 340 332 325 325 347 318 252 271 284 299 310 275 264 241 223 206 198 196 196 188
224 223 225 227 230 236 249 257 264 274 293 299 298 295 291 287 304 307 290 148 224 293 314 321 318 328 330 325 312 263 267 278 270 258 271 272 266 235 220 211 201 197 193
213 219 234 240 244 240 237 259 267 268 286 294 298 301 294 288 287 290 271 231 204 215 272 288 300 315 321 321 312 293 296 306 266 250 257 255 244 237 230 222 209 206 202
197 233 254 263 259 251 237 250 265 263 264 278 280 284 289 288 285 281 273 260 238 226 260 278 297 312 321 320 309 306 311 302 253 247 248 249 240 222 201 198 188 170 155
206 251 268 275 282 277 259 246 245 253 257 266 268 271 277 283 277 274 268 267 267 269 281 297 309 317 313 299 304 308 294 261 240 242 250 257 253 216 208 197 190 176 160
229 269 282 277 276 280 276 256 246 243 234 235 247 247 254 274 269 241 222 231 230 236 256 310 324 326 323 317 312 301 288 277 258 247 239 243 242 234 230 204 184 174 185
245 292 292 291 288 286 289 298 278 264 272 259 253 251 252 253 270 259 239 236 230 217 191 258 275 278 280 285 291 296 288 265 250 243 240 235 231 227 228 214 192 190 200
221 281 300 311 306 303 300 299 309 316 312 296 288 285 276 277 274 262 249 242 235 203 215 253 261 265 268 270 269 268 272 269 252 240 240 238 229 223 219 218 211 207 212
5 345 341 310 309 311 307 302 300 313 329 331 322 319 313 301 294 283 255 213 272 240 244 259 266 266 263 262 263 263 265 267 256 246 244 243 229 220 219 219 215 214 216
26 1 353 345 343 341 340 342 344 345 342 341 348 349 342 338 343 351 125 195 275 283 274 271 272 272 268 262 258 258 258 261 259 247 243 239 230 221 225 225 220 219 217
29 31 39 29 18 16 16 17 12 10 13 14 8 355 358 24 26 18 21 347 314 307 305 299 298 295 293 287 277 267 263 262 261 257 252 246 236 226 231 229 223 220 221
41 35 42 46 38 35 34 31 27 29 26 20 10 8 15 30 20 10 8 0 346 333 325 318 311 309 305 302 294 284 274 272 265 260 259 254 243 239 236 233 229 225 222
55 50 46 46 42 41 39 35 35 37 32 29 19 21 26 31 25 19 12 6 357 348 344 341 338 331 325 323 317 310 300 293 287 277 270 264 254 247 244 238 234 230 226
63 60 53 46 46 43 43 38 39 38 34 30 28 27 28 28 26 23 17 9 3 360 355 352 347 342 337 329 319 316 314 305 297 291 283 274 265 255 246 242 238 235 231
67 66 62 53 48 47 43 36 33 33 31 28 26 24 21 17 14 14 9 3 3 3 3 0 358 354 354 355 350 342 334 327 319 302 287 279 271 264 254 248 243 238 236
70 70 67 61 54 46 42 37 31 29 26 23 21 16 10 8 5 1 356 354 354 356 355 352 351 349 350 352 351 348 342 338 334 325 304 288 281 272 262 256 252 244 236
79 78 74 66 55 46 42 33 24 19 16 13 8 2 358 356 351 346 344 345 344 343 341 340 341 341 340 342 338 338 341 340 335 329 314 293 286 282 277 267 260 252 243
Height
1508 1506 1504 1502 1500 1498 1495 1493 1490 1488 1485 1483 1481 1479 1477 1475 1474 1474 1474 1474 1474 1474 1475 1476 1477 1478 1479 1480 1481 1482 1484 1485 1485 1487 1488 1489 1491 1493 1494 1496 1498 1500 1502
1507 1506 1504 1502 1500 1498 1495 1493 1490 1488 1485 1483 1481 1479 1477 1475 1474 1473 1473 1473 1473 1473 1474 1474 1475 1476 1477 1478 1479 1480 1481 1482 1483 1484 1485 1487 1488 1490 1491 1493 1495 1496 1498
1507 1505 1503 1502 1500 1498 1495 1493 1490 1488 1485 1483 1481 1478 1476 1474 1473 1472 1472 1472 1472 1472 1472 1473 1474 1475 1475 1476 1477 1478 1479 1480 1481 1481 1482 1484 1485 1487 1488 1490 1491 1493 1494
1506 1505 1503 1501 1499 1497 1495 1493 1491 1488 1485 1483 1481 1478 1476 1474 1473 1472 1472 1471 1471 1471 1471 1471 1472 1473 1473 1474 1475 1475 1476 1477 1478 1478 1479 1481 1482 1483 1485 1486 1488 1489 1490
1505 1504 1503 1501 1499 1497 1495 1493 1491 1488 1486 1483 1481 1478 1476 1474 1473 1472 1471 1471 1470 1470 1470 1470 1470 1471 1471 1472 1472 1473 1473 1474 1475 1475 1476 1477 1478 1480 1481 1482 1484 1485 1486
1504 1503 1502 1501 1499 1497 1495 1493 1491 1489 1487 1484 1482 1479 1477 1475 1474 1472 1471 1471 1470 1469 1469 1469 1469 1469 1469 1470 1470 1470 1471 1471 1472 1472 1473 1474 1474 1476 1478 1479 1480 1481 1482
1503 1502 1501 1500 1498 1497 1495 1493 1491 1489 1487 1485 1482 1480 1478 1476 1474 1473 1472 1471 1470 1469 1469 1468 1468 1468 1468 1467 1467 1468 1468 1468 1469 1470 1470 1470 1471 1473 1474 1475 1476 1477 1478
1502 1501 1500 1499 1498 1496 1495 1493 1491 1489 1487 1485 1483 1481 1479 1477 1475 1473 1472 1471 1470 1469 1468 1468 1467 1466 1466 1466 1466 1465 1465 1466 1466 1467 1467 1468 1469 1470 1470 1471 1472 1473 1474
1501 1500 1499 1498 1497 1496 1494 1493 1491 1489 1488 1486 1484 1482 1480 1477 1475 1474 1472 1471 1470 1469 1468 1467 1466 1465 1465 1465 1464 1463 1463 1463 1464 1464 1464 1465 1465 1466 1466 1467 1467 1469 1469
1499 1499 1498 1497 1496 1495 1493 1492 1491 1489 1487 1486 1484 1482 1480 1478 1476 1474 1473 1471 1470 1469 1468 1467 1466 1465 1464 1463 1462 1462 1461 1461 1461 1461 1462 1462 1462 1462 1462 1463 1463 1464 1465
1498 1497 1496 1496 1495 1494 1492 1491 1490 1488 1487 1485 1484 1482 1480 1478 1476 1474 1473 1471 1470 1469 1467 1466 1465 1464 1463 1462 1461 1460 1459 1459 1459 1459 1459 1459 1459 1459 1459 1459 1460 1460 1461
1496 1495 1495 1494 1493 1492 1491 1490 1488 1487 1485 1484 1482 1481 1479 1478 1476 1474 1473 1471 1470 1468 1467 1465 1464 1463 1462 1461 1460 1459 1458 1458 1457 1457 1456 1456 1456 1456 1456 1456 1456 1457 1458
1494 1493 1493 1492 1491 1490 1489 1488 1487 1485 1484 1482 1481 1479 1478 1476 1475 1473 1472 1470 1469 1467 1466 1465 1463 1462 1461 1460 1459 1458 1457 1456 1455 1455 1454 1454 1454 1454 1454 1454 1454 1454 1454
1492 1491 1490 1489 1489 1488 1487 1485 1484 1483 1482 1480 1479 1477 1476 1474 1473 1472 1470 1469 1468 1466 1465 1463 1462 1461 1460 1459 1458 1457 1456 1455 1454 1453 1453 1453 1453 1453 1452 1452 1452 1452 1452
1489 1488 1488 1487 1486 1485 1484 1483 1482 1481 1480 1478 1476 1475 1473 1472 1471 1470 1468 1467 1466 1465 1463 1462 1461 1459 1458 1457 1456 1455 1454 1453 1453 1452 1451 1451 1451 1450 1450 1450 1450 1450 1450
1486 1485 1485 1484 1482 1481 1480 1479 1479 1478 1476 1475 1474 1472 1471 1470 1468 1467 1466 1465 1464 1462 1461 1460 1458 1457 1456 1455 1454 1453 1452 1451 1451 1450 1449 1449 1448 1448 1448 1448 1448 1448 1448
1483 1482 1481 1480 1479 1478 1477 1475 1474 1474 1473 1472 1470 1469 1467 1466 1465 1463 1462 1462 1461 1460 1458 1457 1456 1455 1454 1453 1452 1451 1450 1449 1448 1448 1447 1446 1446 1446 1446 1446 1446 1446 1446
1480 1479 1479 1477 1476 1475 1474 1473 1471 1469 1468 1467 1467 1465 1464 1462 1461 1460 1459 1458 1457 1456 1455 1454 1453 1452 1450 1449 1448 1447 1446 1446 1445 1444 1444 1443 1443 1442 1442 1442 1443 1443 1443
1477 1476 1476 1475 1474 1472 1471 1470 1469 1467 1465 1464 1462 1461 1460 1459 1458 1456 1455 1454 1453 1453 1452 1451 1450 1448 1447 1446 1444 1443 1443 1442 1441 1441 1440 1440 1439 1439 1438 1438 1439 1439 1439
1475 1474 1473 1472 1471 1470 1469 1467 1466 1465 1463 1461 1460 1458 1457 1456 1454 1453 1452 1450 1449 1448 1448 1447 1445 1444 1443 1442 1441 1439 1438 1437 1437 1436 1436 1435 1435 1434 1434 1434 1434 1434 1434
1473 1472 1471 1470 1469 1467 1466 1465 1464 1463 1461 1459 1458 1457 1455 1453 1452 1451 1449 1448 1447 1445 1444 1443 1441 1440 1438 1437 1436 1435 1434 1433 1432 1431 1430 1430 1429 1429 1429 1428 1428 1428 1429
1471 1470 1469 1468 1467 1466 1465 1464 1462 1461 1460 1458 1456 1455 1453 1451 1450 1448 1447 1445 1444 1442 1441 1439 1437 1436 1434 1433 1431 1430 1429 1428 1427 1426 1425 1424 1424 1423 1423 1422 1422 1422 1423
1469 1469 1468 1467 1466 1465 1464 1463 1461 1460 1458 1457 1455 1453 1451 1450 1448 1446 1445 1443 1441 1439 1437 1435 1433 1431 1430 1428 1427 1425 1423 1422 1421 1420 1418 1418 1417 1416 1416 1415 1415 1415 1415
1468 1467 1467 1466 1465 1464 1463 1462 1461 1459 1458 1456 1455 1453 1451 1449 1447 1445 1443 1441 1439 1436 1434 1432 1430 1427 1425 1423 1422 1420 1418 1416 1415 1413 1412 1411 1410 1409 1409 1408 1408 1408 1408
1467 1467 1466 1465 1465 1464 1463 1461 1460 1459 1457 1456 1454 1452 1450 1448 1446 1444 1441 1439 1436 1434 1431 1428 1426 1423 1421 1418 1416 1414 1412 1410 1408 1407 1405 1404 1402 1401 1400 1400 1400 1399 1400
1466 1466 1465 1464 1464 1463 1462 1460 1459 1458 1456 1454 1453 1451 1449 1446 1444 1441 1439 1436 1433 1430 1427 1424 1421 1418 1415 1413 1410 1407 1405 1403 1401 1399 1397 1396 1394 1393 1392 1391 1391 1391 1391